Time,TemperatureF,DewpointF,PressureIn,WindDirection,WindDirectionDegrees,WindSpeedMPH,WindSpeedGustMPH,Humidity,HourlyPrecipIn,Conditions,Clouds,dailyrainin,SoftwareType,DateUTC
2013-08-31 00:01:00,70.5,64.0,29.16,North,0,0.0,0.0,80,0.00,,---,0.00,VWS V13.01,2013-08-31 05:01:00,
2013-08-31 00:06:00,70.3,63.8,29.16,North,0,0.0,0.0,80,0.00,,---,0.00,VWS V13.01,2013-08-31 05:06:00,
2013-08-31 00:11:00,70.3,63.8,29.16,North,0,0.0,0.0,80,0.00,,---,0.00,VWS V13.01,2013-08-31 05:11:00,
2013-08-31 00:16:00,70.1,63.7,29.15,North,0,0.0,0.0,80,0.00,,---,0.00,VWS V13.01,2013-08-31 05:16:00,
2013-08-31 00:21:00,70.1,63.7,29.15,North,0,0.0,0.0,80,0.00,,---,0.00,VWS V13.01,2013-08-31 05:21:00,
2013-08-31 00:26:00,70.1,63.7,29.15,North,0,0.0,0.0,80,0.00,,---,0.00,VWS V13.01,2013-08-31 05:26:00,
2013-08-31 00:31:00,70.1,63.7,29.15,North,0,0.0,0.0,80,0.00,,---,0.00,VWS V13.01,2013-08-31 05:31:00,
2013-08-31 00:36:00,69.9,63.5,29.14,North,0,0.0,0.0,80,0.00,,---,0.00,VWS V13.01,2013-08-31 05:36:00,
2013-08-31 00:41:00,69.9,63.5,29.15,North,0,0.0,0.0,80,0.00,,---,0.00,VWS V13.01,2013-08-31 05:41:00,
2013-08-31 00:46:00,69.9,63.5,29.15,North,0,0.0,0.0,80,0.00,,---,0.00,VWS V13.01,2013-08-31 05:46:00,
2013-08-31 00:51:00,69.9,63.5,29.15,North,0,0.0,0.0,80,0.00,,---,0.00,VWS V13.01,2013-08-31 05:51:00,
2013-08-31 00:56:00,69.9,63.5,29.15,North,0,0.0,0.0,80,0.00,,---,0.00,VWS V13.01,2013-08-31 05:56:00,
2013-08-31 01:01:00,69.9,63.5,29.15,North,0,0.0,0.0,80,0.00,,---,0.00,VWS V13.01,2013-08-31 06:01:00,
2013-08-31 01:06:00,69.9,63.5,29.15,North,0,0.0,0.0,80,0.00,,---,0.00,VWS V13.01,2013-08-31 06:06:00,
2013-08-31 01:11:00,69.9,63.5,29.15,North,0,0.0,0.0,80,0.00,,---,0.00,VWS V13.01,2013-08-31 06:11:00,
2013-08-31 01:16:00,69.9,63.5,29.15,North,0,0.0,0.0,80,0.00,,---,0.00,VWS V13.01,2013-08-31 06:16:00,
2013-08-31 01:21:00,69.9,63.5,29.15,North,0,0.0,0.0,80,0.00,,---,0.00,VWS V13.01,2013-08-31 06:21:00,
2013-08-31 01:26:00,69.9,63.5,29.15,North,0,0.0,0.0,80,0.00,,---,0.00,VWS V13.01,2013-08-31 06:26:00,
2013-08-31 01:31:00,69.6,63.2,29.15,North,0,0.0,0.0,80,0.00,,---,0.00,VWS V13.01,2013-08-31 06:31:00,
2013-08-31 01:36:00,69.6,63.2,29.15,North,0,0.0,0.0,80,0.00,,---,0.00,VWS V13.01,2013-08-31 06:36:00,
2013-08-31 01:41:00,69.6,63.2,29.15,North,0,0.0,0.0,80,0.00,,---,0.00,VWS V13.01,2013-08-31 06:41:00,
2013-08-31 01:46:00,69.6,63.2,29.15,North,0,0.0,0.0,80,0.00,,---,0.00,VWS V13.01,2013-08-31 06:46:00,
2013-08-31 01:51:00,69.6,63.2,29.14,North,0,0.0,0.0,80,0.00,,---,0.00,VWS V13.01,2013-08-31 06:51:00,
2013-08-31 01:56:00,69.4,63.0,29.14,North,0,0.0,0.0,80,0.00,,---,0.00,VWS V13.01,2013-08-31 06:56:00,
2013-08-31 02:01:00,69.4,63.0,29.14,North,0,0.0,0.0,80,0.00,,---,0.00,VWS V13.01,2013-08-31 07:01:00,
2013-08-31 02:06:00,69.2,62.8,29.15,North,0,0.0,0.0,80,0.00,,---,0.00,VWS V13.01,2013-08-31 07:06:00,
2013-08-31 02:11:00,69.0,62.6,29.14,North,0,0.0,0.0,80,0.00,,---,0.00,VWS V13.01,2013-08-31 07:11:00,
2013-08-31 02:16:00,68.9,62.8,29.14,North,0,0.0,0.0,81,0.00,,---,0.00,VWS V13.01,2013-08-31 07:16:00,
2013-08-31 02:21:00,68.7,62.6,29.14,North,0,0.0,0.0,81,0.00,,---,0.00,VWS V13.01,2013-08-31 07:21:00,
2013-08-31 02:26:00,68.5,62.5,29.14,North,0,0.0,0.0,81,0.00,,---,0.00,VWS V13.01,2013-08-31 07:26:00,
2013-08-31 02:31:00,68.3,62.2,29.14,North,0,0.0,0.0,81,0.00,,---,0.00,VWS V13.01,2013-08-31 07:31:00,
2013-08-31 02:36:00,68.3,62.2,29.14,North,0,0.0,0.0,81,0.00,,---,0.00,VWS V13.01,2013-08-31 07:36:00,
2013-08-31 02:41:00,68.1,62.1,29.14,North,0,0.0,0.0,81,0.00,,---,0.00,VWS V13.01,2013-08-31 07:41:00,
2013-08-31 02:47:00,68.1,62.1,29.14,North,0,0.0,0.0,81,0.00,,---,0.00,VWS V13.01,2013-08-31 07:47:00,
2013-08-31 02:52:00,68.1,62.1,29.13,North,0,0.0,0.0,81,0.00,,---,0.00,VWS V13.01,2013-08-31 07:52:00,
2013-08-31 02:57:00,68.1,62.1,29.13,North,0,0.0,0.0,81,0.00,,---,0.00,VWS V13.01,2013-08-31 07:57:00,
2013-08-31 03:02:00,67.8,62.1,29.13,North,0,0.0,0.0,82,0.00,,---,0.00,VWS V13.01,2013-08-31 08:02:00,
2013-08-31 03:07:00,67.8,62.1,29.13,North,0,0.0,0.0,82,0.00,,---,0.00,VWS V13.01,2013-08-31 08:07:00,
2013-08-31 03:12:00,67.6,61.9,29.13,North,0,0.0,0.0,82,0.00,,---,0.00,VWS V13.01,2013-08-31 08:12:00,
2013-08-31 03:17:00,67.6,61.9,29.13,North,0,0.0,0.0,82,0.00,,---,0.00,VWS V13.01,2013-08-31 08:17:00,
2013-08-31 03:22:00,67.2,61.5,29.13,North,0,0.0,0.0,82,0.00,,---,0.00,VWS V13.01,2013-08-31 08:22:00,
2013-08-31 03:27:00,67.2,61.9,29.13,North,0,0.0,0.0,83,0.00,,---,0.00,VWS V13.01,2013-08-31 08:27:00,
2013-08-31 03:32:00,67.2,61.9,29.13,North,0,0.0,0.0,83,0.00,,---,0.00,VWS V13.01,2013-08-31 08:32:00,
2013-08-31 03:37:00,67.2,61.9,29.14,North,0,0.0,0.0,83,0.00,,---,0.00,VWS V13.01,2013-08-31 08:37:00,
2013-08-31 03:42:00,67.2,61.9,29.14,North,0,0.0,0.0,83,0.00,,---,0.00,VWS V13.01,2013-08-31 08:42:00,
2013-08-31 03:47:00,67.2,61.9,29.14,North,0,0.0,0.0,83,0.00,,---,0.00,VWS V13.01,2013-08-31 08:47:00,
2013-08-31 03:52:00,67.2,61.9,29.13,North,0,0.0,0.0,83,0.00,,---,0.00,VWS V13.01,2013-08-31 08:52:00,
2013-08-31 03:57:00,67.2,61.9,29.14,North,0,0.0,0.0,83,0.00,,---,0.00,VWS V13.01,2013-08-31 08:57:00,
2013-08-31 04:02:00,67.1,61.8,29.13,North,0,0.0,0.0,83,0.00,,---,0.00,VWS V13.01,2013-08-31 09:02:00,
2013-08-31 04:07:00,66.9,61.6,29.13,North,0,0.0,0.0,83,0.00,,---,0.00,VWS V13.01,2013-08-31 09:07:00,
2013-08-31 04:12:00,66.9,61.6,29.13,North,0,0.0,0.0,83,0.00,,---,0.00,VWS V13.01,2013-08-31 09:12:00,
2013-08-31 04:17:00,66.9,61.6,29.13,North,0,0.0,0.0,83,0.00,,---,0.00,VWS V13.01,2013-08-31 09:17:00,
2013-08-31 04:22:00,66.9,61.6,29.14,North,0,0.0,0.0,83,0.00,,---,0.00,VWS V13.01,2013-08-31 09:22:00,
2013-08-31 04:27:00,66.9,61.6,29.13,North,0,0.0,0.0,83,0.00,,---,0.00,VWS V13.01,2013-08-31 09:27:00,
2013-08-31 04:32:00,66.9,61.6,29.13,North,0,0.0,0.0,83,0.00,,---,0.00,VWS V13.01,2013-08-31 09:32:00,
2013-08-31 04:37:00,66.9,61.6,29.13,North,0,0.0,0.0,83,0.00,,---,0.00,VWS V13.01,2013-08-31 09:37:00,
2013-08-31 04:42:00,66.9,61.9,29.14,North,0,0.0,0.0,84,0.00,,---,0.00,VWS V13.01,2013-08-31 09:42:00,
2013-08-31 04:48:00,66.9,61.9,29.13,North,0,0.0,0.0,84,0.00,,---,0.00,VWS V13.01,2013-08-31 09:48:00,
2013-08-31 04:53:00,66.9,61.9,29.13,North,0,0.0,0.0,84,0.00,,---,0.00,VWS V13.01,2013-08-31 09:53:00,
2013-08-31 04:58:00,66.9,61.9,29.13,North,0,0.0,0.0,84,0.00,,---,0.00,VWS V13.01,2013-08-31 09:58:00,
2013-08-31 05:03:00,66.9,61.9,29.13,North,0,0.0,0.0,84,0.00,,---,0.00,VWS V13.01,2013-08-31 10:03:00,
2013-08-31 05:08:00,66.9,61.9,29.14,North,0,0.0,0.0,84,0.00,,---,0.00,VWS V13.01,2013-08-31 10:08:00,
2013-08-31 05:13:00,66.9,61.9,29.14,North,0,0.0,0.0,84,0.00,,---,0.00,VWS V13.01,2013-08-31 10:13:00,
2013-08-31 05:18:00,66.9,61.9,29.14,North,0,0.0,0.0,84,0.00,,---,0.00,VWS V13.01,2013-08-31 10:18:00,
2013-08-31 05:23:00,66.9,61.9,29.14,North,0,0.0,0.0,84,0.00,,---,0.00,VWS V13.01,2013-08-31 10:23:00,
2013-08-31 05:28:00,66.9,61.9,29.14,North,0,0.0,0.0,84,0.00,,---,0.00,VWS V13.01,2013-08-31 10:28:00,
2013-08-31 05:33:00,66.9,61.9,29.14,North,0,0.0,0.0,84,0.00,,---,0.00,VWS V13.01,2013-08-31 10:33:00,
2013-08-31 05:38:00,66.9,61.9,29.13,North,0,0.0,0.0,84,0.00,,---,0.00,VWS V13.01,2013-08-31 10:38:00,
2013-08-31 05:43:00,66.7,61.7,29.13,North,0,0.0,0.0,84,0.00,,---,0.00,VWS V13.01,2013-08-31 10:43:00,
2013-08-31 05:48:00,66.7,61.7,29.14,North,0,0.0,0.0,84,0.00,,---,0.00,VWS V13.01,2013-08-31 10:48:00,
2013-08-31 05:53:00,66.7,61.7,29.13,North,0,0.0,0.0,84,0.00,,---,0.00,VWS V13.01,2013-08-31 10:53:00,
2013-08-31 05:58:00,66.5,61.5,29.13,North,0,0.0,0.0,84,0.00,,---,0.00,VWS V13.01,2013-08-31 10:58:00,
2013-08-31 06:03:00,66.5,61.5,29.13,North,0,0.0,0.0,84,0.00,,---,0.00,VWS V13.01,2013-08-31 11:03:00,
2013-08-31 06:08:00,66.3,61.3,29.13,North,0,0.0,0.0,84,0.00,,---,0.00,VWS V13.01,2013-08-31 11:08:00,
2013-08-31 06:13:00,66.2,61.2,29.13,North,0,0.0,0.0,84,0.00,,---,0.00,VWS V13.01,2013-08-31 11:13:00,
2013-08-31 06:18:00,66.2,61.2,29.13,North,0,0.0,0.0,84,0.00,,---,0.00,VWS V13.01,2013-08-31 11:18:00,
2013-08-31 06:23:00,66.2,61.2,29.13,North,0,0.0,0.0,84,0.00,,---,0.00,VWS V13.01,2013-08-31 11:23:00,
2013-08-31 06:28:00,66.2,61.2,29.14,North,0,0.0,0.0,84,0.00,,---,0.00,VWS V13.01,2013-08-31 11:28:00,
2013-08-31 06:33:00,66.2,61.2,29.13,North,0,0.0,0.0,84,0.00,,---,0.00,VWS V13.01,2013-08-31 11:33:00,
2013-08-31 06:38:00,66.2,61.2,29.13,North,0,0.0,0.0,84,0.00,,---,0.00,VWS V13.01,2013-08-31 11:38:00,
2013-08-31 06:43:00,66.0,61.0,29.14,North,0,0.0,0.0,84,0.00,,---,0.00,VWS V13.01,2013-08-31 11:43:00,
2013-08-31 06:48:00,66.0,61.0,29.14,North,0,0.0,0.0,84,0.00,,---,0.00,VWS V13.01,2013-08-31 11:48:00,
2013-08-31 06:53:00,66.0,61.0,29.14,North,0,0.0,0.0,84,0.00,,---,0.00,VWS V13.01,2013-08-31 11:53:00,
2013-08-31 06:58:00,66.0,61.0,29.15,North,0,0.0,0.0,84,0.00,,---,0.00,VWS V13.01,2013-08-31 11:58:00,
2013-08-31 07:03:00,66.0,61.0,29.14,North,0,0.0,0.0,84,0.00,,---,0.00,VWS V13.01,2013-08-31 12:03:00,
2013-08-31 07:08:00,65.8,60.8,29.15,North,0,0.0,0.0,84,0.00,,---,0.00,VWS V13.01,2013-08-31 12:08:00,
2013-08-31 07:13:00,66.0,61.0,29.15,North,0,0.0,0.0,84,0.00,,---,0.00,VWS V13.01,2013-08-31 12:13:00,
2013-08-31 07:18:00,66.0,61.4,29.15,North,0,0.0,0.0,85,0.00,,---,0.00,VWS V13.01,2013-08-31 12:18:00,
2013-08-31 07:23:00,66.0,61.4,29.14,North,0,0.0,0.0,85,0.00,,---,0.00,VWS V13.01,2013-08-31 12:23:00,
2013-08-31 07:28:00,66.0,61.4,29.14,North,0,0.0,0.0,85,0.00,,---,0.00,VWS V13.01,2013-08-31 12:28:00,
2013-08-31 07:33:00,66.2,61.6,29.14,North,0,0.0,0.0,85,0.00,,---,0.00,VWS V13.01,2013-08-31 12:33:00,
2013-08-31 07:38:00,66.3,61.7,29.14,North,0,0.0,0.0,85,0.00,,---,0.00,VWS V13.01,2013-08-31 12:38:00,
2013-08-31 07:43:00,66.7,62.0,29.15,North,0,0.0,0.0,85,0.00,,---,0.00,VWS V13.01,2013-08-31 12:43:00,
2013-08-31 07:48:00,66.7,62.0,29.15,North,0,0.0,0.0,85,0.00,,---,0.00,VWS V13.01,2013-08-31 12:48:00,
2013-08-31 07:53:00,66.9,62.2,29.15,North,0,0.0,0.0,85,0.00,,---,0.00,VWS V13.01,2013-08-31 12:53:00,
2013-08-31 07:58:00,67.1,62.5,29.15,North,0,0.0,0.0,85,0.00,,---,0.00,VWS V13.01,2013-08-31 12:58:00,
2013-08-31 08:03:00,67.2,62.5,29.15,North,0,0.0,0.0,85,0.00,,---,0.00,VWS V13.01,2013-08-31 13:03:00,
2013-08-31 08:08:00,67.6,62.9,29.15,North,0,0.0,0.0,85,0.00,,---,0.00,VWS V13.01,2013-08-31 13:08:00,
2013-08-31 08:13:00,67.8,63.1,29.15,North,0,0.0,0.0,85,0.00,,---,0.00,VWS V13.01,2013-08-31 13:13:00,
2013-08-31 08:18:00,68.1,63.4,29.15,North,0,0.0,0.0,85,0.00,,---,0.00,VWS V13.01,2013-08-31 13:18:00,
2013-08-31 08:23:00,68.5,63.8,29.15,North,0,0.0,0.0,85,0.00,,---,0.00,VWS V13.01,2013-08-31 13:23:00,
2013-08-31 08:28:00,68.7,64.0,29.16,North,0,0.0,0.0,85,0.00,,---,0.00,VWS V13.01,2013-08-31 13:28:00,
2013-08-31 08:33:00,68.9,64.6,29.15,North,0,0.0,0.0,86,0.00,,---,0.00,VWS V13.01,2013-08-31 13:33:00,
2013-08-31 08:38:00,69.4,65.0,29.16,North,0,0.0,0.0,86,0.00,,---,0.00,VWS V13.01,2013-08-31 13:38:00,
2013-08-31 08:43:00,69.6,64.9,29.15,North,0,0.0,0.0,85,0.00,,---,0.00,VWS V13.01,2013-08-31 13:43:00,
2013-08-31 08:48:00,69.6,64.9,29.15,NNE,22,0.0,0.0,85,0.00,,---,0.00,VWS V13.01,2013-08-31 13:48:00,
2013-08-31 08:53:00,69.9,65.2,29.15,East,90,0.0,0.0,85,0.00,,---,0.00,VWS V13.01,2013-08-31 13:53:00,
2013-08-31 08:58:00,70.3,65.6,29.16,East,90,0.0,0.0,85,0.00,,---,0.00,VWS V13.01,2013-08-31 13:58:00,
2013-08-31 09:03:00,70.3,65.6,29.15,East,90,0.0,0.0,85,0.00,,---,0.00,VWS V13.01,2013-08-31 14:03:00,
2013-08-31 09:08:00,70.7,66.0,29.15,East,90,0.0,0.0,85,0.00,,---,0.00,VWS V13.01,2013-08-31 14:08:00,
2013-08-31 09:13:00,70.8,66.1,29.15,East,90,0.0,0.0,85,0.00,,---,0.00,VWS V13.01,2013-08-31 14:13:00,
2013-08-31 09:18:00,71.2,66.5,29.15,East,90,0.0,0.0,85,0.00,,---,0.00,VWS V13.01,2013-08-31 14:18:00,
2013-08-31 09:23:00,71.4,66.7,29.15,East,90,0.0,0.0,85,0.00,,---,0.00,VWS V13.01,2013-08-31 14:23:00,
2013-08-31 09:28:00,71.6,66.5,29.15,East,90,0.0,0.0,84,0.00,,---,0.00,VWS V13.01,2013-08-31 14:28:00,
2013-08-31 09:33:00,71.7,66.6,29.15,East,90,0.0,0.0,84,0.00,,---,0.00,VWS V13.01,2013-08-31 14:33:00,
2013-08-31 09:38:00,71.9,66.8,29.15,East,90,0.0,0.0,84,0.00,,---,0.00,VWS V13.01,2013-08-31 14:38:00,
2013-08-31 09:43:00,71.9,66.8,29.15,East,90,0.0,0.0,84,0.00,,---,0.00,VWS V13.01,2013-08-31 14:43:00,
2013-08-31 09:48:00,72.1,67.0,29.15,East,90,0.0,0.0,84,0.00,,---,0.00,VWS V13.01,2013-08-31 14:48:00,
2013-08-31 09:53:00,72.5,67.4,29.15,ESE,112,0.0,0.0,84,0.00,,---,0.00,VWS V13.01,2013-08-31 14:53:00,
2013-08-31 09:58:00,72.6,67.2,29.15,ESE,112,0.0,0.0,83,0.00,,---,0.00,VWS V13.01,2013-08-31 14:58:00,
2013-08-31 10:03:00,73.0,67.5,29.15,ESE,112,0.0,0.0,83,0.00,,---,0.00,VWS V13.01,2013-08-31 15:03:00,
2013-08-31 10:08:00,73.0,67.5,29.16,ESE,112,0.0,0.0,83,0.00,,---,0.00,VWS V13.01,2013-08-31 15:08:00,
2013-08-31 10:13:00,73.2,67.4,29.15,SE,135,0.0,0.0,82,0.00,,---,0.00,VWS V13.01,2013-08-31 15:13:00,
2013-08-31 10:18:00,73.4,67.6,29.15,SSE,158,0.0,0.0,82,0.00,,---,0.00,VWS V13.01,2013-08-31 15:18:00,
2013-08-31 10:23:00,73.7,67.9,29.15,SSE,158,0.0,0.0,82,0.00,,---,0.00,VWS V13.01,2013-08-31 15:23:00,
2013-08-31 10:28:00,73.9,68.1,29.15,SSE,158,0.0,0.0,82,0.00,,---,0.00,VWS V13.01,2013-08-31 15:28:00,
2013-08-31 10:33:00,74.1,68.3,29.15,SE,135,0.0,0.0,82,0.00,,---,0.00,VWS V13.01,2013-08-31 15:33:00,
2013-08-31 10:38:00,74.4,68.2,29.15,SE,135,0.0,0.0,81,0.00,,---,0.00,VWS V13.01,2013-08-31 15:38:00,
2013-08-31 10:43:00,74.8,68.6,29.15,SE,135,0.0,0.0,81,0.00,,---,0.00,VWS V13.01,2013-08-31 15:43:00,
2013-08-31 10:48:00,75.0,68.8,29.15,SE,135,0.0,0.0,81,0.00,,---,0.00,VWS V13.01,2013-08-31 15:48:00,
2013-08-31 10:53:00,75.3,69.1,29.15,SE,135,0.0,0.0,81,0.00,,---,0.00,VWS V13.01,2013-08-31 15:53:00,
2013-08-31 10:58:00,75.3,68.7,29.14,SE,135,0.0,0.0,80,0.00,,---,0.00,VWS V13.01,2013-08-31 15:58:00,
2013-08-31 11:03:00,75.3,68.7,29.14,SE,135,0.0,0.0,80,0.00,,---,0.00,VWS V13.01,2013-08-31 16:03:00,
2013-08-31 11:08:00,75.5,68.9,29.14,SE,135,0.0,0.0,80,0.00,,---,0.00,VWS V13.01,2013-08-31 16:08:00,
2013-08-31 11:13:00,75.9,68.9,29.14,SE,135,0.0,0.0,79,0.00,,---,0.00,VWS V13.01,2013-08-31 16:13:00,
2013-08-31 11:18:00,75.9,68.9,29.14,SE,135,0.0,0.0,79,0.00,,---,0.00,VWS V13.01,2013-08-31 16:18:00,
2013-08-31 11:23:00,75.9,68.9,29.14,SE,135,0.0,0.0,79,0.00,,---,0.00,VWS V13.01,2013-08-31 16:23:00,
2013-08-31 11:28:00,76.1,69.1,29.13,SE,135,0.0,0.0,79,0.00,,---,0.00,VWS V13.01,2013-08-31 16:28:00,
2013-08-31 11:33:00,76.2,68.8,29.13,SE,135,0.0,0.0,78,0.00,,---,0.00,VWS V13.01,2013-08-31 16:33:00,
2013-08-31 11:38:00,76.6,69.2,29.13,SE,135,0.0,0.0,78,0.00,,---,0.00,VWS V13.01,2013-08-31 16:38:00,
2013-08-31 11:43:00,76.6,69.2,29.12,SE,135,0.0,0.0,78,0.00,,---,0.00,VWS V13.01,2013-08-31 16:43:00,
2013-08-31 11:48:00,77.0,69.6,29.13,SE,135,0.0,0.0,78,0.00,,---,0.00,VWS V13.01,2013-08-31 16:48:00,
2013-08-31 11:53:00,77.3,69.5,29.13,SE,135,0.0,0.0,77,0.00,,---,0.00,VWS V13.01,2013-08-31 16:53:00,
2013-08-31 11:58:00,77.5,69.7,29.13,SE,135,0.0,0.0,77,0.00,,---,0.00,VWS V13.01,2013-08-31 16:58:00,
2013-08-31 12:03:00,77.5,69.3,29.13,SE,135,0.0,0.0,76,0.00,,---,0.00,VWS V13.01,2013-08-31 17:03:00,
2013-08-31 12:08:00,77.9,69.3,29.13,ESE,112,0.0,0.0,75,0.00,,---,0.00,VWS V13.01,2013-08-31 17:08:00,
2013-08-31 12:13:00,78.0,69.4,29.13,SSE,158,0.0,0.0,75,0.00,,---,0.00,VWS V13.01,2013-08-31 17:13:00,
2013-08-31 12:18:00,78.2,69.6,29.13,SSE,158,0.0,0.0,75,0.00,,---,0.00,VWS V13.01,2013-08-31 17:18:00,
2013-08-31 12:23:00,78.4,69.8,29.13,SSE,158,0.0,0.0,75,0.00,,---,0.00,VWS V13.01,2013-08-31 17:23:00,
2013-08-31 12:28:00,78.6,69.6,29.13,SSE,158,0.0,0.0,74,0.00,,---,0.00,VWS V13.01,2013-08-31 17:28:00,
2013-08-31 12:33:00,78.6,70.0,29.13,SE,135,0.0,0.0,75,0.00,,---,0.00,VWS V13.01,2013-08-31 17:33:00,
2013-08-31 12:38:00,78.9,69.9,29.13,SE,135,0.0,0.0,74,0.00,,---,0.00,VWS V13.01,2013-08-31 17:38:00,
2013-08-31 12:43:00,78.9,69.9,29.13,SE,135,0.0,0.0,74,0.00,,---,0.00,VWS V13.01,2013-08-31 17:43:00,
2013-08-31 12:48:00,79.1,69.7,29.13,SE,135,0.0,0.0,73,0.00,,---,0.00,VWS V13.01,2013-08-31 17:48:00,
2013-08-31 12:53:00,79.3,69.9,29.13,SSE,158,0.0,0.0,73,0.00,,---,0.00,VWS V13.01,2013-08-31 17:53:00,
2013-08-31 12:58:00,79.5,70.1,29.13,SSE,158,0.0,0.0,73,0.00,,---,0.00,VWS V13.01,2013-08-31 17:58:00,
2013-08-31 13:03:00,79.5,69.7,29.13,SE,135,0.0,0.0,72,0.00,,---,0.00,VWS V13.01,2013-08-31 18:03:00,
2013-08-31 13:08:00,79.8,70.0,29.13,SE,135,4.8,4.8,72,0.00,,---,0.00,VWS V13.01,2013-08-31 18:08:00,
2013-08-31 13:14:00,80.2,70.4,29.13,SE,135,0.0,0.0,72,0.00,,---,0.00,VWS V13.01,2013-08-31 18:14:00,
2013-08-31 13:19:00,80.4,70.6,29.13,SE,135,0.0,0.0,72,0.00,,---,0.00,VWS V13.01,2013-08-31 18:19:00,
2013-08-31 13:24:00,80.4,70.1,29.14,SE,135,36.2,36.2,71,0.00,,---,0.00,VWS V13.01,2013-08-31 18:24:00,
2013-08-31 13:29:00,80.6,70.3,29.14,SE,135,0.0,0.0,71,0.00,,---,0.00,VWS V13.01,2013-08-31 18:29:00,
2013-08-31 13:34:00,80.9,70.6,29.14,SE,135,0.0,0.0,71,0.00,,---,0.00,VWS V13.01,2013-08-31 18:34:00,
2013-08-31 13:39:00,81.1,70.4,29.14,SE,135,0.0,0.0,70,0.00,,---,0.00,VWS V13.01,2013-08-31 18:39:00,
2013-08-31 13:44:00,81.3,70.6,29.13,SSE,158,0.0,0.0,70,0.00,,---,0.00,VWS V13.01,2013-08-31 18:44:00,
2013-08-31 13:49:00,81.3,70.2,29.13,SSE,158,0.0,0.0,69,0.00,,---,0.00,VWS V13.01,2013-08-31 18:49:00,
2013-08-31 13:54:00,81.5,70.4,29.13,SSE,158,0.0,0.0,69,0.00,,---,0.00,VWS V13.01,2013-08-31 18:54:00,
2013-08-31 13:59:00,81.6,70.4,29.14,SSE,158,0.0,0.0,69,0.00,,---,0.00,VWS V13.01,2013-08-31 18:59:00,
2013-08-31 14:04:00,81.6,70.0,29.14,SSE,158,0.0,0.0,68,0.00,,---,0.00,VWS V13.01,2013-08-31 19:04:00,
2013-08-31 14:09:00,81.6,70.0,29.14,SSE,158,0.0,0.0,68,0.00,,---,0.00,VWS V13.01,2013-08-31 19:09:00,
2013-08-31 14:15:00,81.6,70.0,29.14,SSE,158,0.0,0.0,68,0.00,,---,0.00,VWS V13.01,2013-08-31 19:15:00,
2013-08-31 14:20:00,82.0,70.8,29.14,SSE,158,0.0,0.0,69,0.00,,---,0.00,VWS V13.01,2013-08-31 19:20:00,
2013-08-31 14:25:00,82.4,70.3,29.13,SE,135,0.0,0.0,67,0.00,,---,0.00,VWS V13.01,2013-08-31 19:25:00,
2013-08-31 14:30:00,82.5,70.4,29.14,SE,135,0.0,0.0,67,0.00,,---,0.00,VWS V13.01,2013-08-31 19:30:00,
2013-08-31 14:35:00,82.7,70.2,29.14,SE,135,0.0,0.0,66,0.00,,---,0.00,VWS V13.01,2013-08-31 19:35:00,
2013-08-31 14:40:00,83.3,70.8,29.13,SE,135,0.0,33.4,66,0.00,,---,0.00,VWS V13.01,2013-08-31 19:40:00,
2013-08-31 14:45:00,83.8,71.2,29.13,SE,135,0.0,0.0,66,0.00,,---,0.00,VWS V13.01,2013-08-31 19:45:00,
2013-08-31 14:50:00,84.0,71.0,29.13,SE,135,0.0,0.0,65,0.00,,---,0.00,VWS V13.01,2013-08-31 19:50:00,
2013-08-31 14:55:00,84.3,71.3,29.13,SE,135,35.2,35.2,65,0.00,,---,0.00,VWS V13.01,2013-08-31 19:55:00,
2013-08-31 15:00:00,84.5,71.4,29.13,SE,135,34.4,34.4,65,0.00,,---,0.00,VWS V13.01,2013-08-31 20:00:00,
2013-08-31 15:05:00,84.7,71.2,29.13,SE,135,0.0,0.0,64,0.00,,---,0.00,VWS V13.01,2013-08-31 20:05:00,
2013-08-31 15:10:00,85.1,71.6,29.13,SE,135,0.0,0.0,64,0.00,,---,0.00,VWS V13.01,2013-08-31 20:10:00,
2013-08-31 15:15:00,85.1,71.1,29.14,SE,135,0.0,0.0,63,0.00,,---,0.00,VWS V13.01,2013-08-31 20:15:00,
2013-08-31 15:20:00,85.1,71.1,29.13,SE,135,0.0,0.0,63,0.00,,---,0.00,VWS V13.01,2013-08-31 20:20:00,
2013-08-31 15:25:00,85.2,70.7,29.13,SE,135,31.6,31.6,62,0.00,,---,0.00,VWS V13.01,2013-08-31 20:25:00,
2013-08-31 15:30:00,85.2,70.2,29.13,SE,135,0.0,0.0,61,0.00,,---,0.00,VWS V13.01,2013-08-31 20:30:00,
2013-08-31 15:35:00,85.1,70.2,29.13,SE,135,0.0,0.0,61,0.00,,---,0.00,VWS V13.01,2013-08-31 20:35:00,
2013-08-31 15:40:00,85.2,70.2,29.12,SE,135,0.0,0.0,61,0.00,,---,0.00,VWS V13.01,2013-08-31 20:40:00,
2013-08-31 15:45:00,85.1,70.2,29.12,SE,135,0.0,0.0,61,0.00,,---,0.00,VWS V13.01,2013-08-31 20:45:00,
2013-08-31 15:50:00,85.1,70.2,29.12,SE,135,18.6,18.6,61,0.00,,---,0.00,VWS V13.01,2013-08-31 20:50:00,
2013-08-31 15:55:00,84.9,70.0,29.12,SE,135,28.0,28.0,61,0.00,,---,0.00,VWS V13.01,2013-08-31 20:55:00,
2013-08-31 16:00:00,84.9,70.0,29.12,SE,135,0.0,28.0,61,0.00,,---,0.00,VWS V13.01,2013-08-31 21:00:00,
2013-08-31 16:05:00,84.5,69.6,29.12,SE,135,0.0,0.0,61,0.00,,---,0.00,VWS V13.01,2013-08-31 21:05:00,
2013-08-31 16:10:00,84.3,69.4,29.12,SE,135,34.8,34.8,61,0.00,,---,0.00,VWS V13.01,2013-08-31 21:10:00,
2013-08-31 16:16:00,84.2,69.3,29.12,SE,135,25.0,25.0,61,0.00,,---,0.00,VWS V13.01,2013-08-31 21:16:00,
2013-08-31 16:21:00,83.8,68.9,29.12,South,180,34.0,36.6,61,0.00,,---,0.00,VWS V13.01,2013-08-31 21:21:00,
2013-08-31 16:26:00,83.6,68.7,29.12,South,180,21.8,21.8,61,0.00,,---,0.00,VWS V13.01,2013-08-31 21:26:00,
2013-08-31 16:31:00,83.4,68.6,29.12,South,180,0.0,0.0,61,0.00,,---,0.00,VWS V13.01,2013-08-31 21:31:00,
2013-08-31 16:36:00,83.1,68.3,29.12,South,180,36.6,36.6,61,0.00,,---,0.00,VWS V13.01,2013-08-31 21:36:00,
2013-08-31 16:41:00,82.9,68.6,29.12,SSE,158,21.8,21.8,62,0.00,,---,0.00,VWS V13.01,2013-08-31 21:41:00,
2013-08-31 16:46:00,82.9,68.6,29.11,SE,135,0.0,0.0,62,0.00,,---,0.00,VWS V13.01,2013-08-31 21:46:00,
2013-08-31 16:51:00,82.5,68.2,29.11,SE,135,44.2,44.2,62,0.00,,---,0.00,VWS V13.01,2013-08-31 21:51:00,
2013-08-31 16:56:00,82.5,68.2,29.11,SE,135,0.0,0.0,62,0.00,,---,0.00,VWS V13.01,2013-08-31 21:56:00,
2013-08-31 17:01:00,82.2,68.4,29.11,SE,135,0.0,0.0,63,0.00,,---,0.00,VWS V13.01,2013-08-31 22:01:00,
2013-08-31 17:06:00,82.2,68.4,29.11,SE,135,0.0,0.0,63,0.00,,---,0.00,VWS V13.01,2013-08-31 22:06:00,
2013-08-31 17:11:00,82.2,68.4,29.11,SE,135,0.0,0.0,63,0.00,,---,0.00,VWS V13.01,2013-08-31 22:11:00,
2013-08-31 17:16:00,82.2,68.8,29.10,SE,135,0.0,0.0,64,0.00,,---,0.00,VWS V13.01,2013-08-31 22:16:00,
2013-08-31 17:21:00,82.2,68.8,29.10,SSE,158,0.0,0.0,64,0.00,,---,0.00,VWS V13.01,2013-08-31 22:21:00,
2013-08-31 17:26:00,82.0,68.2,29.10,SE,135,0.0,0.0,63,0.00,,---,0.00,VWS V13.01,2013-08-31 22:26:00,
2013-08-31 17:31:00,82.0,68.2,29.10,SE,135,0.0,0.0,63,0.00,,---,0.00,VWS V13.01,2013-08-31 22:31:00,
2013-08-31 17:37:00,81.8,68.4,29.10,SE,135,0.0,0.0,64,0.00,,---,0.00,VWS V13.01,2013-08-31 22:37:00,
2013-08-31 17:42:00,81.6,68.2,29.10,SE,135,0.0,0.0,64,0.00,,---,0.00,VWS V13.01,2013-08-31 22:42:00,
2013-08-31 17:47:00,81.6,68.7,29.10,North,0,0.0,0.0,65,0.00,,---,0.00,VWS V13.01,2013-08-31 22:47:00,
2013-08-31 17:52:00,81.6,68.7,29.10,SE,135,0.0,0.0,65,0.00,,---,0.00,VWS V13.01,2013-08-31 22:52:00,
2013-08-31 17:57:00,81.5,68.6,29.09,SE,135,0.0,0.0,65,0.00,,---,0.00,VWS V13.01,2013-08-31 22:57:00,
2013-08-31 18:02:00,81.3,68.4,29.09,SE,135,0.0,0.0,65,0.00,,---,0.00,VWS V13.01,2013-08-31 23:02:00,
2013-08-31 18:07:00,81.1,68.2,29.09,SE,135,0.0,0.0,65,0.00,,---,0.00,VWS V13.01,2013-08-31 23:07:00,
2013-08-31 18:12:00,81.1,68.2,29.08,SE,135,0.0,0.0,65,0.00,,---,0.00,VWS V13.01,2013-08-31 23:12:00,
2013-08-31 18:17:00,81.1,68.2,29.08,SE,135,0.0,0.0,65,0.00,,---,0.00,VWS V13.01,2013-08-31 23:17:00,
2013-08-31 18:22:00,81.1,68.2,29.08,SE,135,0.0,0.0,65,0.00,,---,0.00,VWS V13.01,2013-08-31 23:22:00,
2013-08-31 18:27:00,80.9,68.5,29.08,SE,135,0.0,0.0,66,0.00,,---,0.00,VWS V13.01,2013-08-31 23:27:00,
2013-08-31 18:32:00,80.9,68.5,29.08,SE,135,0.0,0.0,66,0.00,,---,0.00,VWS V13.01,2013-08-31 23:32:00,
2013-08-31 18:37:00,80.7,68.3,29.09,SE,135,0.0,0.0,66,0.00,,---,0.00,VWS V13.01,2013-08-31 23:37:00,
2013-08-31 18:42:00,80.9,68.5,29.09,SE,135,0.0,0.0,66,0.00,,---,0.00,VWS V13.01,2013-08-31 23:42:00,
2013-08-31 18:47:00,80.9,68.9,29.10,SE,135,0.0,0.0,67,0.00,,---,0.00,VWS V13.01,2013-08-31 23:47:00,
2013-08-31 18:52:00,80.7,68.7,29.10,SE,135,0.0,0.0,67,0.00,,---,0.00,VWS V13.01,2013-08-31 23:52:00,
2013-08-31 18:57:00,80.6,68.6,29.10,SE,135,0.0,0.0,67,0.00,,---,0.00,VWS V13.01,2013-08-31 23:57:00,
2013-08-31 19:02:00,80.6,68.6,29.10,SE,135,0.0,0.0,67,0.00,,---,0.00,VWS V13.01,2013-09-01 00:02:00,
2013-08-31 19:07:00,80.4,68.4,29.10,SE,135,0.0,0.0,67,0.00,,---,0.00,VWS V13.01,2013-09-01 00:07:00,
2013-08-31 19:12:00,80.4,68.4,29.10,SE,135,0.0,0.0,67,0.00,,---,0.00,VWS V13.01,2013-09-01 00:12:00,
2013-08-31 19:17:00,80.2,68.3,29.10,SE,135,0.0,0.0,67,0.00,,---,0.00,VWS V13.01,2013-09-01 00:17:00,
2013-08-31 19:22:00,79.8,67.9,29.10,SE,135,0.0,0.0,67,0.00,,---,0.00,VWS V13.01,2013-09-01 00:22:00,
2013-08-31 19:27:00,79.8,67.9,29.09,SE,135,0.0,0.0,67,0.00,,---,0.00,VWS V13.01,2013-09-01 00:27:00,
2013-08-31 19:32:00,79.7,68.2,29.10,SE,135,0.0,0.0,68,0.00,,---,0.00,VWS V13.01,2013-09-01 00:32:00,
2013-08-31 19:37:00,79.3,67.8,29.11,SE,135,0.0,0.0,68,0.00,,---,0.00,VWS V13.01,2013-09-01 00:37:00,
2013-08-31 19:42:00,79.1,67.6,29.11,SE,135,0.0,0.0,68,0.00,,---,0.00,VWS V13.01,2013-09-01 00:42:00,
2013-08-31 19:47:00,78.9,67.4,29.12,SE,135,0.0,0.0,68,0.00,,---,0.00,VWS V13.01,2013-09-01 00:47:00,
2013-08-31 19:52:00,78.6,67.6,29.12,SE,135,0.0,0.0,69,0.00,,---,0.00,VWS V13.01,2013-09-01 00:52:00,
2013-08-31 19:57:00,78.4,67.4,29.12,SE,135,0.0,0.0,69,0.00,,---,0.00,VWS V13.01,2013-09-01 00:57:00,
2013-08-31 20:02:00,78.0,67.0,29.12,SE,135,0.0,0.0,69,0.00,,---,0.00,VWS V13.01,2013-09-01 01:02:00,
2013-08-31 20:07:00,77.9,67.3,29.12,SE,135,0.0,0.0,70,0.00,,---,0.00,VWS V13.01,2013-09-01 01:07:00,
2013-08-31 20:12:00,77.7,67.1,29.12,SE,135,0.0,0.0,70,0.00,,---,0.00,VWS V13.01,2013-09-01 01:12:00,
2013-08-31 20:17:00,77.7,67.1,29.12,SE,135,0.0,0.0,70,0.00,,---,0.00,VWS V13.01,2013-09-01 01:17:00,
2013-08-31 20:22:00,77.5,66.9,29.12,SE,135,0.0,0.0,70,0.00,,---,0.00,VWS V13.01,2013-09-01 01:22:00,
2013-08-31 20:27:00,77.1,66.6,29.12,SE,135,0.0,0.0,70,0.00,,---,0.00,VWS V13.01,2013-09-01 01:27:00,
2013-08-31 20:32:00,77.1,66.6,29.13,SE,135,0.0,0.0,70,0.00,,---,0.00,VWS V13.01,2013-09-01 01:32:00,
2013-08-31 20:37:00,76.8,66.7,29.13,SE,135,0.0,0.0,71,0.00,,---,0.00,VWS V13.01,2013-09-01 01:37:00,
2013-08-31 20:42:00,76.8,66.7,29.13,SE,135,0.0,0.0,71,0.00,,---,0.00,VWS V13.01,2013-09-01 01:42:00,
2013-08-31 20:47:00,76.6,66.5,29.13,SE,135,0.0,0.0,71,0.00,,---,0.00,VWS V13.01,2013-09-01 01:47:00,
2013-08-31 20:52:00,76.4,66.3,29.13,SE,135,0.0,0.0,71,0.00,,---,0.00,VWS V13.01,2013-09-01 01:52:00,
2013-08-31 20:57:00,76.2,66.5,29.13,SE,135,0.0,0.0,72,0.00,,---,0.00,VWS V13.01,2013-09-01 01:57:00,
2013-08-31 21:02:00,76.2,66.5,29.14,SE,135,0.0,0.0,72,0.00,,---,0.00,VWS V13.01,2013-09-01 02:02:00,
2013-08-31 21:07:00,76.1,66.4,29.14,SE,135,0.0,0.0,72,0.00,,---,0.00,VWS V13.01,2013-09-01 02:07:00,
2013-08-31 21:12:00,75.9,66.2,29.14,SE,135,0.0,0.0,72,0.00,,---,0.00,VWS V13.01,2013-09-01 02:12:00,
2013-08-31 21:17:00,75.9,66.2,29.15,SE,135,0.0,0.0,72,0.00,,---,0.00,VWS V13.01,2013-09-01 02:17:00,
2013-08-31 21:22:00,75.7,66.4,29.15,SE,135,0.0,0.0,73,0.00,,---,0.00,VWS V13.01,2013-09-01 02:22:00,
2013-08-31 21:27:00,75.5,66.2,29.15,SE,135,0.0,0.0,73,0.00,,---,0.00,VWS V13.01,2013-09-01 02:27:00,
2013-08-31 21:32:00,75.0,65.8,29.15,SE,135,0.0,0.0,73,0.00,,---,0.00,VWS V13.01,2013-09-01 02:32:00,
2013-08-31 21:37:00,75.0,66.2,29.16,SE,135,0.0,0.0,74,0.00,,---,0.00,VWS V13.01,2013-09-01 02:37:00,
2013-08-31 21:42:00,74.8,66.0,29.15,SE,135,0.0,0.0,74,0.00,,---,0.00,VWS V13.01,2013-09-01 02:42:00,
2013-08-31 21:47:00,74.8,66.3,29.15,SE,135,0.0,0.0,75,0.00,,---,0.00,VWS V13.01,2013-09-01 02:47:00,
2013-08-31 21:52:00,74.4,66.0,29.15,SE,135,0.0,0.0,75,0.00,,---,0.00,VWS V13.01,2013-09-01 02:52:00,